Regional Weather Roundup
Issued by NWS Sterling, VA

Home | Current Version | Previous Version | Graphics & Text | Print | Product List | Glossary On
Versions: 1 2 3 4 5 6 7 8 9 10 11 12 13 14 15 16 17 18 19 20 21 22 23 24 25 26 27 28 29 30 31 32 33 34 35 36 37 38 39 40 41 42 43 44 45 46 47 48 49 50
000
ASUS41 KLWX 200311
RWRLWX

REGIONAL WEATHER ROUNDUP
NATIONAL WEATHER SERVICE BALTIMORE MD/WASHINGTON DC
1100 PM EDT WED JUL 19 2017

Note: "FAIR" indicates few or no clouds below 12,000 feet
with no significant weather and/or obstructions to visibility.
 TC=TEMPERATURE CELSIUS

 * =Non NWS site. Station does not report precipitation (e.g. rain,
    snow, etc.), thunder, or fog.

DCZ001-MDZ009-015-VAZ040>042-051-053>054-200400-
WASHINGTON METRO

CITY           SKY/WX    TMP DP  RH WIND       PRES   REMARKS
WASHINGTON NAT PTCLDY    85  75  72 S7        30.03R HX  93
DULLES         PTCLDY    79  71  76 SW3       30.03S
ANDREWS AFB    CLEAR     79  72  78 S6        30.03S
FT BELVOIR     CLEAR     77  73  87 CALM      30.03R
QUANTICO       CLEAR     85  78  80 S8        30.03S HX  96
COLLEGE PARK*  CLEAR     84  72  66 CALM      30.02S HX  90
LEESBURG*      CLEAR     81  77  89 CALM      30.05S
MANASSAS*      CLEAR     78  74  87 CALM      30.04R
GAITHERSBURG*  CLEAR     74  70  87 CALM      30.06R

$$

MDZ006>007-011-014-200400-
BALTIMORE METRO

CITY           SKY/WX    TMP DP  RH WIND       PRES   REMARKS
BWI AIRPORT    PTCLDY    81  75  82 SW3       30.02R
MD SCIENCE CTR   N/A     87  75  67 MISG      30.02R HX  96
MARTIN STATE   CLEAR     81  79  94 CALM      30.03R
ANNAPOLIS      CLEAR     81  78  91 CALM      30.02R
FORT MEADE*    CLEAR     73  72  94 CALM      30.05R

$$

MDZ012-015-019>023-200400-
MARYLAND EASTERN SHORE

CITY           SKY/WX    TMP DP  RH WIND       PRES   REMARKS
OCEAN CITY     CLEAR     79  74  84 SW7       30.04F
SALISBURY      NOT AVBL
BAY BRIDGE AP* CLEAR     84  75  74 S7        30.02R HX  92
CAMBRIDGE*     CLEAR     81  73  78 VRB3      30.03F
EASTON*        CLEAR     83  72  69 SW8       30.06F

$$

MDZ017>025-200400-
SOUTHERN MARYLAND

CITY           SKY/WX    TMP DP  RH WIND       PRES   REMARKS
PATUXENT RIVER PTCLDY    81  75  82 S7        30.03F
ST INIGOES     CLEAR     81  75  82 S8        30.03F
LEONARDTOWN*   CLEAR    N/A N/A N/A S3        30.05F

$$

MDZ003>005-200400-
NORTH CENTRAL MARYLAND

CITY           SKY/WX    TMP DP  RH WIND       PRES   REMARKS
FREDERICK*     NOT AVBL
HAGERSTOWN APT CLEAR     84  70  62 SW5       30.05R
WESTMINSTER*   PTCLDY    81  72  74 CALM      30.06R

$$

MDZ501>502-200400-
WESTERN MARYLAND

CITY           SKY/WX    TMP DP  RH WIND       PRES   REMARKS
OAKLAND*       CLEAR     70  64  83 W3        30.18S
CUMBERLAND*    NOT AVBL

$$

VAZ025>031-200400-
SHENANDOAH VALLEY

CITY           SKY/WX    TMP DP  RH WIND       PRES   REMARKS
WINCHESTER*    CLEAR     75  70  83 CALM      30.06S
FRONT ROYAL*   CLEAR     79  72  78 CALM      30.06R
LURAY*         MOCLDY    77  72  83 CALM      30.08S
NEW MARKET*    CLEAR     74  66  76 CALM      30.07S
STAUNTON*      MOCLDY    73  69  86 CALM      30.12S
WAYNESBORO*    PTCLDY    75  69  80 SW3       30.12S

$$

WVZ021-048>050-054>055-200400-
EASTERN WEST VIRGINIA PANHANDLE

CITY           SKY/WX    TMP DP  RH WIND       PRES   REMARKS
MARTINSBURG    CLEAR     77  70  79 SW3       30.04S
PETERSBURG*    CLEAR     73  68  84 CALM      30.10S

$$

VAZ036>039-050-200400-
CENTRAL FOOTHILLS

CITY           SKY/WX    TMP DP  RH WIND       PRES   REMARKS
CHARLOTTESVILL MOCLDY    80  73  79 CALM      30.06S
CULPEPER*      CLEAR     76  74  96 CALM      30.05S
ORANGE*        CLEAR     73  70  88 CALM      30.05S
GORDONSVILLE*  CLEAR     76  71  86 CALM      30.05S
WARRENTON*     CLEAR     75  69  82 CALM      30.04S

$$

VAZ055>057-200400-
NORTH AND CENTRAL PIEDMONT

CITY           SKY/WX    TMP DP  RH WIND       PRES   REMARKS
FREDERICKSBRG* CLEAR     80  75  85 CALM      30.02F
STAFFORD*      CLEAR     75  75 100 CALM      30.08S

$$

NCZ024-NYZ072-PAZ021-071-VAZ022-071-200400-
OTHER REGIONAL OBSERVATIONS

CITY           SKY/WX    TMP DP  RH WIND       PRES   REMARKS
NEW YORK CITY  MOCLDY    85  66  53 CALM      30.01S
PHILADELPHIA   PTCLDY    82  73  74 S7        30.01S
PITTSBURGH     PTCLDY    79  68  69 W3        30.09R
ROANOKE        PTCLDY    79  64  60 CALM      30.13R
RICHMOND       CLEAR     80  69  69 S5        30.05S
RALEIGH        CLEAR     80  71  74 SE3       30.08S

$$

ANZ530>537-200400-
MARINE OBSERVATIONS

STATION/POSITION TIME  TEMP    WIND        PRES
                       AIR SEA DIR/SP/G
                 (UTC) (F)     (DEG/KT/KT) (MB)
THOMAS PT LIGHT  0300   83 82  210/ 13/ 14   N/A
BALT KEY BRIDGE  0248   83     200/  7/  9 1016.1R
COVE POINT       0248   81     200/ 10/ 11 1017.5F
LEWISETTA        0248   81 86  200/  9/ 11 1017.1F
SOLOMONS ISLAND  0248   83 85  180/  7/  8   N/A
PINEY POINT      0242          200/ 10/ 12   N/A

$$




USA.gov is the U.S. government's official web portal to all federal, state and local government web resources and services.